,,,PA_Meas_PMT16A,,PR_Meas_QMR101_102,,RH_Meas_QMH101,,SR_Meas_QMS101,,TA_Meas_QMH101,,GenWind,,GenWind,
date,time,status,PA,status,PR,status,RH,status,SR,status,TA,status,DirAvg,status,SpdAvg,
2013-02-18, 00:00:05,VALID,1008.41,VALID,0,VALID,104,VALID,0,VALID,23.733,VALID,331,VALID,0,
2013-02-18, 00:01:05,VALID,1008.38,VALID,0,VALID,104,VALID,0.112112,VALID,23.7312,VALID,330,VALID,0,
2013-02-18, 00:02:05,VALID,1008.42,VALID,0,VALID,104,VALID,0,VALID,23.6922,VALID,331,VALID,0,
2013-02-18, 00:03:05,VALID,1008.43,VALID,0,VALID,104,VALID,0,VALID,23.6922,VALID,331,VALID,0,
2013-02-18, 00:04:05,VALID,1008.4,VALID,0,VALID,104,VALID,0,VALID,23.733,VALID,331,VALID,0,
2013-02-18, 00:05:05,VALID,1008.39,VALID,0,VALID,104,VALID,0.112112,VALID,23.7135,VALID,330,VALID,0,
2013-02-18, 00:06:05,VALID,1008.38,VALID,0,VALID,104,VALID,0,VALID,23.7135,VALID,331,VALID,0,
2013-02-18, 00:07:05,VALID,1008.39,VALID,0,VALID,104,VALID,0,VALID,23.694,VALID,331,VALID,0,
2013-02-18, 00:08:05,VALID,1008.39,VALID,0,VALID,104,VALID,0,VALID,23.694,VALID,330,VALID,0,
2013-02-18, 00:09:05,VALID,1008.38,VALID,0,VALID,104,VALID,0,VALID,23.6727,VALID,331,VALID,0,
2013-02-18, 00:10:05,VALID,1008.38,VALID,0,VALID,104,VALID,0,VALID,23.6727,VALID,331,VALID,0,
2013-02-18, 00:11:05,VALID,1008.38,VALID,0,VALID,104,VALID,0,VALID,23.694,VALID,331,VALID,0,
2013-02-18, 00:12:05,VALID,1008.38,VALID,0,VALID,104,VALID,0,VALID,23.694,VALID,331,VALID,0,
2013-02-18, 00:13:05,VALID,1008.41,VALID,0,VALID,104,VALID,0,VALID,23.6745,VALID,331,VALID,0,
2013-02-18, 00:14:05,VALID,1008.39,VALID,0,VALID,104,VALID,0,VALID,23.6745,VALID,331,VALID,0,
2013-02-18, 00:15:05,VALID,1008.39,VALID,0,VALID,104,VALID,0,VALID,23.6745,VALID,331,VALID,0,
2013-02-18, 00:16:05,VALID,1008.38,VALID,0,VALID,104,VALID,0.112112,VALID,23.6745,VALID,331,VALID,0,
2013-02-18, 00:17:05,VALID,1008.37,VALID,0,VALID,104,VALID,0,VALID,23.6745,VALID,331,VALID,0,
2013-02-18, 00:18:05,VALID,1008.38,VALID,0,VALID,104,VALID,0,VALID,23.655,VALID,331,VALID,0,
2013-02-18, 00:19:05,VALID,1008.36,VALID,0,VALID,104,VALID,0.112112,VALID,23.6338,VALID,331,VALID,0,
2013-02-18, 00:20:05,VALID,1008.37,VALID,0,VALID,104,VALID,0.112112,VALID,23.6727,VALID,331,VALID,0,
2013-02-18, 00:21:05,VALID,1008.35,VALID,0,VALID,104,VALID,0.112112,VALID,23.6532,VALID,331,VALID,0,
2013-02-18, 00:22:05,VALID,1008.35,VALID,0,VALID,104,VALID,0.112112,VALID,23.6532,VALID,331,VALID,0,
2013-02-18, 00:23:05,VALID,1008.35,VALID,0,VALID,104,VALID,0.112112,VALID,23.6745,VALID,331,VALID,0,
2013-02-18, 00:24:05,VALID,1008.34,VALID,0,VALID,104,VALID,0.112112,VALID,23.6727,VALID,331,VALID,0,
2013-02-18, 00:25:05,VALID,1008.33,VALID,0,VALID,104,VALID,0.112112,VALID,23.6727,VALID,331,VALID,0,
2013-02-18, 00:26:05,VALID,1008.3,VALID,0,VALID,104,VALID,0.112112,VALID,23.6532,VALID,331,VALID,0,
2013-02-18, 00:27:05,VALID,1008.27,VALID,0,VALID,104,VALID,0.112112,VALID,23.6338,VALID,331,VALID,0,
2013-02-18, 00:28:05,VALID,1008.28,VALID,0,VALID,104,VALID,0.112112,VALID,23.6745,VALID,331,VALID,0,
2013-02-18, 00:29:05,VALID,1008.28,VALID,0,VALID,104,VALID,0.112112,VALID,23.6745,VALID,331,VALID,0,
2013-02-18, 00:30:05,VALID,1008.24,VALID,0,VALID,104,VALID,0.112112,VALID,23.655,VALID,331,VALID,0,
2013-02-18, 00:31:05,VALID,1008.21,VALID,0,VALID,104,VALID,0.112112,VALID,23.6338,VALID,332,VALID,0,
2013-02-18, 00:32:05,VALID,1008.18,VALID,0,VALID,104,VALID,0.112112,VALID,23.655,VALID,332,VALID,0,
2013-02-18, 00:33:05,VALID,1008.19,VALID,0,VALID,104,VALID,0.112112,VALID,23.655,VALID,332,VALID,0,
2013-02-18, 00:34:05,VALID,1008.17,VALID,0,VALID,104,VALID,0.112112,VALID,23.6338,VALID,332,VALID,0,
2013-02-18, 00:35:05,VALID,1008.12,VALID,0,VALID,104,VALID,0.112112,VALID,23.6338,VALID,331,VALID,0,
2013-02-18, 00:36:05,VALID,1008.1,VALID,0,VALID,104,VALID,0.112112,VALID,23.6338,VALID,332,VALID,0,
2013-02-18, 00:37:05,VALID,1008.1,VALID,0,VALID,104,VALID,0.112112,VALID,23.6338,VALID,331,VALID,0,
2013-02-18, 00:38:05,VALID,1008.08,VALID,0,VALID,104,VALID,0,VALID,23.6338,VALID,332,VALID,0,
2013-02-18, 00:39:05,VALID,1008.08,VALID,0,VALID,104,VALID,0,VALID,23.6338,VALID,332,VALID,0,
2013-02-18, 00:40:05,VALID,1008.05,VALID,0,VALID,104,VALID,0.112112,VALID,23.655,VALID,331,VALID,0,
2013-02-18, 00:41:05,VALID,1008.05,VALID,0,VALID,104,VALID,0.112112,VALID,23.6338,VALID,330,VALID,0,
2013-02-18, 00:42:05,VALID,1008.03,VALID,0,VALID,104,VALID,0.112112,VALID,23.6338,VALID,329,VALID,0,
2013-02-18, 00:43:05,VALID,1008.03,VALID,0,VALID,104,VALID,0.112112,VALID,23.6338,VALID,329,VALID,0,
2013-02-18, 00:44:05,VALID,1008.02,VALID,0,VALID,104,VALID,0,VALID,23.6356,VALID,330,VALID,0,
2013-02-18, 00:45:05,VALID,1008,VALID,0,VALID,104,VALID,0.112112,VALID,23.6143,VALID,328,VALID,0,
2013-02-18, 00:46:05,VALID,1007.97,VALID,0,VALID,104,VALID,0.112112,VALID,23.6143,VALID,330,VALID,0,
2013-02-18, 00:47:05,VALID,1007.96,VALID,0,VALID,104,VALID,0,VALID,23.655,INVALID,360,VALID,0,
2013-02-18, 00:48:05,VALID,1007.98,VALID,0,VALID,104,VALID,0,VALID,23.6338,VALID,329,VALID,0,
2013-02-18, 00:49:05,VALID,1007.94,VALID,0,VALID,104,VALID,0.112112,VALID,23.6356,VALID,330,VALID,0,
2013-02-18, 00:50:05,VALID,1007.96,VALID,0,VALID,104,VALID,0.112112,VALID,23.655,VALID,330,VALID,0,
2013-02-18, 00:51:05,VALID,1007.88,VALID,0,VALID,104,VALID,0.112112,VALID,23.6143,VALID,329,VALID,0,
2013-02-18, 00:52:05,VALID,1007.87,VALID,0,VALID,104,VALID,0.112112,VALID,23.5948,VALID,330,VALID,0,
2013-02-18, 00:53:05,VALID,1007.87,VALID,0,VALID,104,VALID,0.112112,VALID,23.5948,VALID,330,VALID,0,
2013-02-18, 00:54:05,VALID,1007.84,VALID,0,VALID,104,VALID,0.112112,VALID,23.6161,VALID,330,VALID,0,
2013-02-18, 00:55:05,VALID,1007.82,VALID,0,VALID,104,VALID,0.112112,VALID,23.5948,VALID,329,VALID,0,
2013-02-18, 00:56:05,VALID,1007.81,VALID,0,VALID,104,VALID,0.112112,VALID,23.6161,VALID,330,VALID,0,
2013-02-18, 00:57:05,VALID,1007.77,VALID,0,VALID,104,VALID,0.112112,VALID,23.5753,VALID,329,VALID,0,
2013-02-18, 00:58:05,VALID,1007.76,VALID,0,VALID,104,VALID,0,VALID,23.5753,VALID,330,VALID,0,
2013-02-18, 00:59:05,VALID,1007.74,VALID,0,VALID,104,VALID,0.112112,VALID,23.5948,VALID,330,VALID,0,
2013-02-18, 01:00:05,VALID,1007.71,VALID,0,VALID,104,VALID,0.112112,VALID,23.5753,VALID,330,VALID,0,
2013-02-18, 01:01:05,VALID,1007.7,VALID,0,VALID,104,VALID,0.112112,VALID,23.5966,VALID,329,VALID,0,
2013-02-18, 01:02:05,VALID,1007.67,VALID,0,VALID,104,VALID,0.112112,VALID,23.5966,VALID,330,VALID,0,
2013-02-18, 01:03:05,VALID,1007.64,VALID,0,VALID,104,VALID,0,VALID,23.5753,VALID,329,VALID,0,
2013-02-18, 01:04:05,VALID,1007.62,VALID,0,VALID,104,VALID,0,VALID,23.5558,VALID,330,VALID,0,
2013-02-18, 01:05:05,VALID,1007.6,VALID,0,VALID,104,VALID,0,VALID,23.5771,VALID,329,VALID,0,
2013-02-18, 01:06:05,VALID,1007.6,VALID,0,VALID,104,VALID,0.112112,VALID,23.5753,VALID,330,VALID,0,
2013-02-18, 01:07:05,VALID,1007.57,VALID,0,VALID,104,VALID,0,VALID,23.5771,VALID,330,VALID,0,
2013-02-18, 01:08:05,VALID,1007.56,VALID,0,VALID,104,VALID,0.112112,VALID,23.5966,VALID,330,VALID,0,
2013-02-18, 01:09:05,VALID,1007.53,VALID,0,VALID,104,VALID,0.112112,VALID,23.5753,VALID,330,VALID,0,
2013-02-18, 01:10:05,VALID,1007.49,VALID,0,VALID,104,VALID,0,VALID,23.5966,VALID,329,VALID,0,
2013-02-18, 01:11:05,VALID,1007.48,VALID,0,VALID,104,VALID,0,VALID,23.5771,VALID,330,VALID,0,
2013-02-18, 01:12:05,VALID,1007.45,VALID,0,VALID,104,VALID,0.112112,VALID,23.5558,VALID,329,VALID,0,
2013-02-18, 01:13:05,VALID,1007.4,VALID,0,VALID,104,VALID,0,VALID,23.5966,INVALID,360,VALID,0,
2013-02-18, 01:14:05,VALID,1007.38,VALID,0,VALID,104,VALID,0.112112,VALID,23.5558,VALID,329,VALID,0,
2013-02-18, 01:15:05,VALID,1007.35,VALID,0,VALID,104,VALID,0.112112,VALID,23.5753,VALID,329,VALID,0,
2013-02-18, 01:16:05,VALID,1007.36,VALID,0,VALID,104,VALID,0,VALID,23.5966,VALID,27,VALID,0,
2013-02-18, 01:17:05,VALID,1007.31,VALID,0,VALID,104,VALID,0,VALID,23.5558,VALID,33,VALID,0,
2013-02-18, 01:18:05,VALID,1007.28,VALID,0,VALID,104,VALID,0,VALID,23.5771,VALID,21,VALID,0,
2013-02-18, 01:19:05,VALID,1007.28,VALID,0,VALID,104,VALID,0,VALID,23.5576,VALID,1,VALID,0,
2013-02-18, 01:20:05,VALID,1007.26,VALID,0,VALID,104,VALID,0,VALID,23.5576,VALID,59,VALID,0,
2013-02-18, 01:21:05,VALID,1007.23,VALID,0,VALID,104,VALID,0,VALID,23.5363,VALID,49,VALID,0,
2013-02-18, 01:22:05,VALID,1007.23,VALID,0,VALID,104,VALID,0,VALID,23.5576,VALID,36,VALID,0,
2013-02-18, 01:23:05,VALID,1007.19,VALID,0,VALID,104,VALID,0,VALID,23.5576,VALID,35,VALID,0,
2013-02-18, 01:24:05,VALID,1007.19,VALID,0,VALID,104,VALID,0,VALID,23.5169,VALID,38,VALID,0,
2013-02-18, 01:25:05,VALID,1007.15,VALID,0,VALID,104,VALID,0,VALID,23.5576,VALID,35,VALID,0,
2013-02-18, 01:26:05,VALID,1007.13,VALID,0,VALID,104,VALID,0,VALID,23.5381,VALID,37,VALID,0,
2013-02-18, 01:27:05,VALID,1007.11,VALID,0,VALID,104,VALID,0,VALID,23.5169,VALID,37,VALID,0,
2013-02-18, 01:28:05,VALID,1007.11,VALID,0,VALID,104,VALID,0,VALID,23.5186,VALID,36,VALID,0,
2013-02-18, 01:29:05,VALID,1007.05,VALID,0,VALID,104,VALID,0,VALID,23.5381,VALID,61,VALID,0,
2013-02-18, 01:30:05,VALID,1007.04,VALID,0,VALID,104,VALID,0,VALID,23.4974,VALID,58,VALID,0,
2013-02-18, 01:31:05,VALID,1007.02,VALID,0,VALID,104,VALID,0.112112,VALID,23.4974,VALID,61,VALID,0,
2013-02-18, 01:32:05,VALID,1006.99,VALID,0,VALID,104,VALID,0,VALID,23.4992,VALID,67,VALID,0,
2013-02-18, 01:33:05,VALID,1006.95,VALID,0,VALID,104,VALID,0,VALID,23.5186,VALID,66,VALID,0,
2013-02-18, 01:34:05,VALID,1006.92,VALID,0,VALID,104,VALID,0,VALID,23.4992,VALID,63,VALID,0,
2013-02-18, 01:35:05,VALID,1006.89,VALID,0,VALID,104,VALID,0,VALID,23.4992,VALID,63,VALID,0,
2013-02-18, 01:36:05,VALID,1006.88,VALID,0,VALID,103.97,VALID,0.112112,VALID,23.4779,VALID,63,VALID,0,
2013-02-18, 01:37:05,VALID,1006.86,VALID,0,VALID,104,VALID,0.112112,VALID,23.4779,VALID,64,VALID,0,
2013-02-18, 01:38:05,VALID,1006.85,VALID,0,VALID,104,VALID,0.112112,VALID,23.4974,VALID,63,VALID,0,
2013-02-18, 01:39:05,VALID,1006.82,VALID,0,VALID,104,VALID,0,VALID,23.5186,VALID,63,VALID,0,
2013-02-18, 01:40:05,VALID,1006.81,VALID,0,VALID,104,VALID,0,VALID,23.4992,VALID,63,VALID,0,
2013-02-18, 01:41:05,VALID,1006.81,VALID,0,VALID,103.992,VALID,0,VALID,23.4974,VALID,64,VALID,0,
2013-02-18, 01:42:05,VALID,1006.76,VALID,0,VALID,104,VALID,0,VALID,23.4992,VALID,62,VALID,0,
2013-02-18, 01:43:05,VALID,1006.74,VALID,0,VALID,104,VALID,0.112112,VALID,23.4992,VALID,63,VALID,0,
2013-02-18, 01:44:05,VALID,1006.7,VALID,0,VALID,104,VALID,0,VALID,23.4779,VALID,60,VALID,0,
2013-02-18, 01:45:05,VALID,1006.7,VALID,0,VALID,104,VALID,0.112112,VALID,23.4992,VALID,59,VALID,0,
2013-02-18, 01:46:05,VALID,1006.66,VALID,0,VALID,104,VALID,0.112112,VALID,23.4974,VALID,60,VALID,0,
2013-02-18, 01:47:05,VALID,1006.64,VALID,0,VALID,104,VALID,0.112112,VALID,23.4992,VALID,59,VALID,0,
2013-02-18, 01:48:05,VALID,1006.61,VALID,0,VALID,103.977,VALID,0,VALID,23.5186,VALID,59,VALID,0,
2013-02-18, 01:49:05,VALID,1006.58,VALID,0,VALID,103.992,VALID,0.112112,VALID,23.4779,VALID,52,VALID,0,
2013-02-18, 01:50:05,VALID,1006.52,VALID,0,VALID,104,VALID,0.112112,VALID,23.4779,VALID,53,VALID,0,
2013-02-18, 01:51:05,VALID,1006.49,VALID,0,VALID,104,VALID,0.112112,VALID,23.4779,VALID,51,VALID,0,
2013-02-18, 01:52:05,VALID,1006.44,VALID,0,VALID,104,VALID,0,VALID,23.4797,VALID,40,VALID,0,
2013-02-18, 01:53:05,VALID,1006.41,VALID,0,VALID,104,VALID,0,VALID,23.4584,VALID,37,VALID,0,
2013-02-18, 01:54:05,VALID,1006.38,VALID,0,VALID,104,VALID,0.112112,VALID,23.4797,VALID,56,VALID,0,
2013-02-18, 01:55:05,VALID,1006.34,VALID,0,VALID,104,VALID,0,VALID,23.4602,VALID,39,VALID,0,
2013-02-18, 01:56:05,VALID,1006.36,VALID,0,VALID,104,VALID,0.112112,VALID,23.4797,VALID,29,VALID,0,
2013-02-18, 01:57:05,VALID,1006.34,VALID,0,VALID,104,VALID,0,VALID,23.4602,VALID,30,VALID,0,
2013-02-18, 01:58:04,VALID,1006.34,VALID,0,VALID,104,VALID,0,VALID,23.4389,VALID,52,VALID,0,
2013-02-18, 01:59:04,VALID,1006.33,VALID,0,VALID,104,VALID,0.112112,VALID,23.4407,VALID,28,VALID,0,
2013-02-18, 02:00:04,VALID,1006.36,VALID,0,VALID,104,VALID,0,VALID,23.4407,VALID,3,VALID,0,
2013-02-18, 02:01:04,VALID,1006.33,VALID,0,VALID,104,VALID,0,VALID,23.4602,VALID,21,VALID,0,
2013-02-18, 02:02:04,VALID,1006.33,VALID,0,VALID,104,VALID,0,VALID,23.4407,VALID,23,VALID,0,
2013-02-18, 02:03:04,VALID,1006.33,VALID,0,VALID,104,VALID,0,VALID,23.4212,VALID,37,VALID,0,
2013-02-18, 02:04:04,VALID,1006.32,VALID,0,VALID,104,VALID,0,VALID,23.462,VALID,42,VALID,0,
2013-02-18, 02:05:04,VALID,1006.29,VALID,0,VALID,104,VALID,0,VALID,23.462,VALID,26,VALID,0,
2013-02-18, 02:06:04,VALID,1006.31,VALID,0,VALID,104,VALID,0,VALID,23.4425,VALID,73,VALID,0,
2013-02-18, 02:07:04,VALID,1006.29,VALID,0,VALID,104,VALID,0,VALID,23.423,VALID,34,VALID,0,
2013-02-18, 02:08:04,VALID,1006.28,VALID,0,VALID,104,VALID,0,VALID,23.423,VALID,50,VALID,0,
2013-02-18, 02:09:04,VALID,1006.24,VALID,0,VALID,104,VALID,0,VALID,23.4017,VALID,26,VALID,0,
2013-02-18, 02:10:04,VALID,1006.2,VALID,0,VALID,104,VALID,0,VALID,23.423,VALID,24,VALID,0,
2013-02-18, 02:11:04,VALID,1006.22,VALID,0,VALID,103.985,VALID,0,VALID,23.4017,VALID,24,VALID,0,
2013-02-18, 02:12:04,VALID,1006.19,VALID,0,VALID,104,VALID,0,VALID,23.423,VALID,49,VALID,0,
2013-02-18, 02:13:04,VALID,1006.15,VALID,0,VALID,104,VALID,0,VALID,23.4035,VALID,55,VALID,0,
2013-02-18, 02:14:04,VALID,1006.13,VALID,0,VALID,104,VALID,0,VALID,23.4035,VALID,64,VALID,0,
2013-02-18, 02:15:04,VALID,1006.14,VALID,0,VALID,104,VALID,0,VALID,23.4035,VALID,65,VALID,0,
2013-02-18, 02:16:04,VALID,1006.11,VALID,0,VALID,104,VALID,0,VALID,23.3823,VALID,63,VALID,0,
2013-02-18, 02:17:04,VALID,1006.08,VALID,0,VALID,104,VALID,0,VALID,23.3823,VALID,49,VALID,0,
2013-02-18, 02:18:04,VALID,1006.05,VALID,0,VALID,104,VALID,0.112112,VALID,23.361,VALID,40,VALID,0,
2013-02-18, 02:19:04,VALID,1006.02,VALID,0,VALID,104,VALID,0,VALID,23.3805,VALID,50,VALID,0,
2013-02-18, 02:20:04,VALID,1006.03,VALID,0,VALID,103.992,VALID,0.112112,VALID,23.3805,VALID,42,VALID,0,
2013-02-18, 02:21:04,VALID,1006.02,VALID,0,VALID,104,VALID,0,VALID,23.3805,VALID,47,VALID,0,
2013-02-18, 02:22:04,VALID,1006.02,VALID,0,VALID,104,VALID,0.112112,VALID,23.3823,VALID,56,VALID,0,
2013-02-18, 02:23:04,VALID,1006.02,VALID,0,VALID,104,VALID,0,VALID,23.361,VALID,60,VALID,0,
2013-02-18, 02:24:04,VALID,1006,VALID,0,VALID,104,VALID,0.112112,VALID,23.3415,VALID,15,VALID,0,
2013-02-18, 02:25:04,VALID,1005.97,VALID,0,VALID,104,VALID,0.112112,VALID,23.3415,VALID,60,VALID,0,
2013-02-18, 02:26:04,VALID,1006.01,VALID,0,VALID,104,VALID,0.112112,VALID,23.3203,VALID,54,VALID,0,
2013-02-18, 02:27:04,VALID,1005.99,VALID,0,VALID,103.992,VALID,0.112112,VALID,23.361,VALID,16,VALID,0,
2013-02-18, 02:28:04,VALID,1006.01,VALID,0,VALID,104,VALID,0.112112,VALID,23.3415,VALID,18,VALID,0,
2013-02-18, 02:29:04,VALID,1006.02,VALID,0,VALID,104,VALID,0,VALID,23.322,VALID,42,VALID,0,
2013-02-18, 02:30:04,VALID,1006.04,VALID,0,VALID,104,VALID,0.112112,VALID,23.322,VALID,34,VALID,0,
2013-02-18, 02:31:04,VALID,1006,VALID,0,VALID,104,VALID,0,VALID,23.3433,VALID,30,VALID,0,
2013-02-18, 02:32:04,VALID,1006.04,VALID,0,VALID,104,VALID,0.112112,VALID,23.322,VALID,29,VALID,0,
2013-02-18, 02:33:04,VALID,1006.08,VALID,0,VALID,104,VALID,0,VALID,23.3238,VALID,29,VALID,0,
2013-02-18, 02:34:04,VALID,1006.08,VALID,0,VALID,103.992,VALID,0,VALID,23.3026,VALID,29,VALID,0,
2013-02-18, 02:35:04,VALID,1006.11,VALID,0,VALID,103.977,VALID,0.112112,VALID,23.2831,VALID,29,VALID,0,
2013-02-18, 02:36:04,VALID,1006.11,VALID,0,VALID,104,VALID,0.112112,VALID,23.3026,VALID,29,VALID,0,
2013-02-18, 02:37:04,VALID,1006.09,VALID,0,VALID,104,VALID,0,VALID,23.3238,VALID,29,VALID,0,
2013-02-18, 02:38:04,VALID,1006.11,VALID,0.5,VALID,104,VALID,0.112112,VALID,23.3026,VALID,29,VALID,0,
2013-02-18, 02:39:04,VALID,1006.09,VALID,0,VALID,104,VALID,0.112112,VALID,23.3026,VALID,29,VALID,0,
2013-02-18, 02:40:04,VALID,1006.07,VALID,0,VALID,103.954,VALID,0,VALID,23.3026,VALID,29,VALID,0,
2013-02-18, 02:41:04,VALID,1006.06,VALID,0,VALID,103.992,VALID,0,VALID,23.3238,VALID,29,VALID,0,
2013-02-18, 02:42:04,VALID,1006.03,VALID,0,VALID,103.985,VALID,0.112112,VALID,23.3026,VALID,29,VALID,0,
2013-02-18, 02:43:04,VALID,1006.03,VALID,0,VALID,103.954,VALID,0.112112,VALID,23.3026,VALID,29,VALID,0,
2013-02-18, 02:44:04,VALID,1006.02,VALID,0,VALID,103.985,VALID,0,VALID,23.3026,VALID,29,VALID,0,
2013-02-18, 02:45:04,VALID,1006.03,VALID,0,VALID,103.924,VALID,0,VALID,23.3026,VALID,29,VALID,0,
2013-02-18, 02:46:04,VALID,1006.03,VALID,0,VALID,103.931,VALID,0,VALID,23.3026,VALID,29,VALID,0,
2013-02-18, 02:47:04,VALID,1006,VALID,0,VALID,103.977,VALID,0.112112,VALID,23.3238,VALID,29,VALID,0,
2013-02-18, 02:48:04,VALID,1006.01,VALID,0,VALID,104,VALID,0,VALID,23.2848,VALID,29,VALID,0,
2013-02-18, 02:49:04,VALID,1006.02,VALID,0,VALID,103.962,VALID,0,VALID,23.2848,VALID,29,VALID,0,
2013-02-18, 02:50:04,VALID,1006.02,VALID,0,VALID,104,VALID,0,VALID,23.2636,VALID,29,VALID,0,
2013-02-18, 02:51:04,VALID,1006.03,VALID,0,VALID,103.985,VALID,0,VALID,23.2848,VALID,29,VALID,0,
2013-02-18, 02:52:04,VALID,1006.02,VALID,0,VALID,103.97,VALID,0,VALID,23.3026,VALID,29,VALID,0,
2013-02-18, 02:53:04,VALID,1006.02,VALID,0,VALID,103.962,VALID,0,VALID,23.3238,VALID,29,VALID,0,
2013-02-18, 02:54:04,VALID,1006.03,VALID,0,VALID,103.893,VALID,0,VALID,23.3433,VALID,29,VALID,0,
2013-02-18, 02:55:04,VALID,1006.02,VALID,0,VALID,103.939,VALID,0,VALID,23.322,VALID,29,VALID,0,
2013-02-18, 02:56:04,VALID,1006,VALID,0,VALID,103.909,VALID,0,VALID,23.3238,VALID,29,VALID,0,
2013-02-18, 02:57:04,VALID,1006.03,VALID,0,VALID,103.916,VALID,0,VALID,23.3645,VALID,29,VALID,0,
2013-02-18, 02:58:04,VALID,1006,VALID,0,VALID,103.954,VALID,0,VALID,23.3628,VALID,29,VALID,0,
2013-02-18, 02:59:04,VALID,1006,VALID,0,VALID,103.939,VALID,0,VALID,23.3628,VALID,25,VALID,0,
2013-02-18, 03:00:04,VALID,1006.03,VALID,0,VALID,103.886,VALID,0,VALID,23.3628,VALID,23,VALID,0,
2013-02-18, 03:01:04,VALID,1006.03,VALID,0,VALID,103.924,VALID,0,VALID,23.3628,VALID,23,VALID,0,
2013-02-18, 03:02:04,VALID,1006.01,VALID,0,VALID,103.947,VALID,0,VALID,23.3628,VALID,23,VALID,0,
2013-02-18, 03:03:04,VALID,1006,VALID,0,VALID,103.832,VALID,0,VALID,23.361,VALID,23,VALID,0,
2013-02-18, 03:04:04,VALID,1006,VALID,0,VALID,103.916,VALID,0.112112,VALID,23.3805,VALID,23,VALID,0,
2013-02-18, 03:05:04,VALID,1006.01,VALID,0,VALID,103.886,VALID,0,VALID,23.361,VALID,23,VALID,0,
2013-02-18, 03:06:04,VALID,1006.05,VALID,0,VALID,103.97,VALID,0.112112,VALID,23.361,VALID,23,VALID,0,
2013-02-18, 03:07:04,VALID,1006.04,VALID,0,VALID,103.939,VALID,0.112112,VALID,23.3805,VALID,23,VALID,0,
2013-02-18, 03:08:04,VALID,1006.04,VALID,0,VALID,103.924,VALID,0.112112,VALID,23.361,VALID,23,VALID,0,
2013-02-18, 03:09:04,VALID,1006,VALID,0,VALID,103.954,VALID,0.112112,VALID,23.361,VALID,23,VALID,0,
2013-02-18, 03:10:04,VALID,1006.02,VALID,0,VALID,103.939,VALID,0.112112,VALID,23.361,VALID,23,VALID,0,
2013-02-18, 03:11:04,VALID,1005.99,VALID,0,VALID,103.947,VALID,0.112112,VALID,23.361,VALID,23,VALID,0,
2013-02-18, 03:12:04,VALID,1005.98,VALID,0,VALID,103.893,VALID,0.112112,VALID,23.3805,VALID,23,VALID,0,
2013-02-18, 03:13:04,VALID,1005.99,VALID,0,VALID,103.931,VALID,0,VALID,23.3805,VALID,23,VALID,0,
2013-02-18, 03:14:04,VALID,1005.97,VALID,0,VALID,103.924,VALID,0.112112,VALID,23.3805,VALID,23,VALID,0,
2013-02-18, 03:15:04,VALID,1005.95,VALID,0,VALID,103.878,VALID,0.112112,VALID,23.4,VALID,22,VALID,0,
2013-02-18, 03:16:04,VALID,1005.96,VALID,0,VALID,103.901,VALID,0.112112,VALID,23.4,VALID,22,VALID,0,
2013-02-18, 03:17:04,VALID,1005.96,VALID,0,VALID,103.893,VALID,0,VALID,23.4,VALID,22,VALID,0,
2013-02-18, 03:18:04,VALID,1005.96,VALID,0,VALID,103.863,VALID,0,VALID,23.4017,VALID,22,VALID,0,
2013-02-18, 03:19:04,VALID,1005.94,VALID,0,VALID,103.901,VALID,0,VALID,23.4017,VALID,22,VALID,0,
2013-02-18, 03:20:04,VALID,1005.93,VALID,0,VALID,103.855,VALID,0.112112,VALID,23.4,VALID,22,VALID,0,
2013-02-18, 03:21:04,VALID,1005.91,VALID,0,VALID,103.901,VALID,0,VALID,23.4194,VALID,22,VALID,0,
2013-02-18, 03:22:04,VALID,1005.91,VALID,0,VALID,103.916,VALID,0,VALID,23.4017,VALID,22,VALID,0,
2013-02-18, 03:23:04,VALID,1005.91,VALID,0,VALID,103.909,VALID,0,VALID,23.4017,VALID,22,VALID,0,
2013-02-18, 03:24:04,VALID,1005.84,VALID,0,VALID,103.901,VALID,0,VALID,23.4017,VALID,22,VALID,0,
2013-02-18, 03:25:04,VALID,1005.84,VALID,0,VALID,103.977,VALID,0,VALID,23.4017,VALID,22,VALID,0,
2013-02-18, 03:26:04,VALID,1005.8,VALID,0,VALID,103.924,VALID,0,VALID,23.361,VALID,22,VALID,0,
2013-02-18, 03:27:04,VALID,1005.82,VALID,0,VALID,103.886,VALID,0,VALID,23.3823,VALID,22,VALID,0,
2013-02-18, 03:28:04,VALID,1005.78,VALID,0,VALID,103.954,VALID,0,VALID,23.3823,VALID,22,VALID,0,
2013-02-18, 03:29:04,VALID,1005.76,VALID,0,VALID,103.97,VALID,0.112112,VALID,23.361,VALID,22,VALID,0,
2013-02-18, 03:30:04,VALID,1005.74,VALID,0,VALID,103.87,VALID,0,VALID,23.361,VALID,22,VALID,0,
2013-02-18, 03:31:04,VALID,1005.76,VALID,0,VALID,103.855,VALID,0,VALID,23.4017,VALID,22,VALID,0,
2013-02-18, 03:32:04,VALID,1005.78,VALID,0,VALID,103.886,VALID,0,VALID,23.4017,VALID,22,VALID,0,
2013-02-18, 03:33:04,VALID,1005.73,VALID,0,VALID,103.84,VALID,0,VALID,23.361,VALID,22,VALID,0,
2013-02-18, 03:34:04,VALID,1005.73,VALID,0,VALID,103.87,VALID,0.112112,VALID,23.3823,VALID,22,VALID,0,
2013-02-18, 03:35:04,VALID,1005.74,VALID,0,VALID,103.87,VALID,0.112112,VALID,23.361,VALID,22,VALID,0,
2013-02-18, 03:36:04,VALID,1005.74,VALID,0,VALID,103.84,VALID,0,VALID,23.361,VALID,22,VALID,0,
2013-02-18, 03:37:04,VALID,1005.69,VALID,0,VALID,103.863,VALID,0,VALID,23.3415,VALID,22,VALID,0,
2013-02-18, 03:38:04,VALID,1005.73,VALID,0,VALID,103.901,VALID,0.112112,VALID,23.3415,VALID,22,VALID,0,
2013-02-18, 03:39:04,VALID,1005.71,VALID,0,VALID,103.84,VALID,0,VALID,23.3415,VALID,22,VALID,0,
2013-02-18, 03:40:04,VALID,1005.72,VALID,0,VALID,103.893,VALID,0,VALID,23.322,VALID,22,VALID,0,
2013-02-18, 03:41:04,VALID,1005.72,VALID,0,VALID,103.893,VALID,0,VALID,23.3433,VALID,22,VALID,0,
2013-02-18, 03:42:04,VALID,1005.74,VALID,0,VALID,103.901,VALID,0,VALID,23.3415,VALID,22,VALID,0,
2013-02-18, 03:43:04,VALID,1005.74,VALID,0,VALID,103.893,VALID,0,VALID,23.322,VALID,22,VALID,0,
2013-02-18, 03:44:04,VALID,1005.73,VALID,0,VALID,103.832,VALID,0,VALID,23.3433,VALID,22,VALID,0,
2013-02-18, 03:45:04,VALID,1005.74,VALID,0,VALID,103.848,VALID,0,VALID,23.322,VALID,22,VALID,0,
2013-02-18, 03:46:04,VALID,1005.71,VALID,0,VALID,103.817,VALID,0.112112,VALID,23.322,VALID,109,VALID,0,
2013-02-18, 03:47:04,VALID,1005.74,VALID,0,VALID,103.855,VALID,0.112112,VALID,23.3238,VALID,109,VALID,0,
2013-02-18, 03:48:04,VALID,1005.71,VALID,0,VALID,103.87,VALID,0,VALID,23.3026,VALID,109,VALID,0,
2013-02-18, 03:49:04,VALID,1005.69,VALID,0,VALID,103.832,VALID,0.112112,VALID,23.3433,VALID,109,VALID,0,
2013-02-18, 03:50:04,VALID,1005.67,VALID,0,VALID,103.901,VALID,0,VALID,23.3026,VALID,109,VALID,0,
2013-02-18, 03:51:04,VALID,1005.66,VALID,0,VALID,103.886,VALID,0,VALID,23.322,VALID,109,VALID,0,
2013-02-18, 03:52:04,VALID,1005.68,VALID,0,VALID,103.825,VALID,0,VALID,23.3238,VALID,109,VALID,0,
2013-02-18, 03:53:04,VALID,1005.68,VALID,0,VALID,103.901,VALID,0.112112,VALID,23.3026,VALID,109,VALID,0,
2013-02-18, 03:54:04,VALID,1005.64,VALID,0,VALID,103.863,VALID,0.112112,VALID,23.3238,VALID,109,VALID,0,
2013-02-18, 03:55:04,VALID,1005.64,VALID,0,VALID,103.855,VALID,0,VALID,23.3433,VALID,109,VALID,0,
2013-02-18, 03:56:04,VALID,1005.65,VALID,0,VALID,103.87,VALID,0,VALID,23.3433,VALID,109,VALID,0,
2013-02-18, 03:57:04,VALID,1005.67,VALID,0,VALID,103.863,VALID,0,VALID,23.3026,VALID,109,VALID,0,
2013-02-18, 03:58:04,VALID,1005.68,VALID,0,VALID,103.855,VALID,0,VALID,23.322,VALID,109,VALID,0,
2013-02-18, 03:59:04,VALID,1005.67,VALID,0,VALID,103.779,VALID,0,VALID,23.3628,VALID,109,VALID,0,
2013-02-18, 04:00:04,VALID,1005.7,VALID,0,VALID,103.809,VALID,0.112112,VALID,23.3415,VALID,109,VALID,0,
2013-02-18, 04:01:04,VALID,1005.71,VALID,0,VALID,103.84,VALID,0.112112,VALID,23.361,VALID,109,VALID,0,